Regional Weather Roundup
Issued by NWS Goodland, KS

Home | Current Version | Previous Version | Graphics & Text | Print | Product List | Glossary On
Versions: 1 2 3 4 5 6 7 8 9 10 11 12 13 14 15 16 17 18 19 20 21 22 23 24 25 26 27 28 29 30 31 32 33 34 35 36 37 38 39 40 41 42 43 44 45 46 47 48 49 50
000
ASUS43 KGLD 260559
RWRGLD

GOODLAND FORECAST AREA HOURLY WEATHER ROUNDUP
NATIONAL WEATHER SERVICE GOODLAND KS
1200 AM MDT MON JUN 26 2017

...OFFICIAL OBSERVATIONS...

CITY           SKY/WX    TMP DP  RH WIND       PRES   REMARKS
GOODLAND KS    CLOUDY    57  57 100 S6        30.30S
HILL CITY KS   CLEAR     57  56  96 SW5       30.28F
IMPERIAL NEB   MOCLDY    57  54  89 S8        30.27F
MCCOOK NEB     MOCLDY    58  57  97 S7        30.26S
AKRON CO       CLEAR     56  53  90 S9        30.32S
BURLINGTON CO  CLEAR     56  55  97 S6        30.31F
LIMON CO       CLOUDY    56  55  97 SE8       30.37S
$$

...UNOFFICIAL OBSERVATIONS...

CITY           SKY/WX    TMP DP  RH WIND       PRES   REMARKS
LENORA KS        N/A     56  32  40 MISG        N/A
NORTON KS      CLEAR     55  50  82 S6        30.26F
SHARON SPRINGS   N/A     60  57  91 CALM        N/A
TRENTON NEB      N/A     53  32  45 CALM        N/A
KIT CARSON CO    N/A     63  55  76 CALM        N/A
YUMA CO        FAIR      52  52 100 S3        30.30S
$$



USA.gov is the U.S. government's official web portal to all federal, state and local government web resources and services.